Regional Weather Roundup
Issued by NWS Cleveland, OH

Home | Current Version | Previous Version | Text Only | Print | Product List | Glossary Off
Versions: 1 2 3 4 5 6 7 8 9 10 11 12 13 14 15 16 17 18 19 20 21 22 23 24 25 26 27 28 29 30 31 32 33 34 35 36 37 38 39 40 41 42 43 44 45 46 47 48 49 50

000
ASUS41 KCLE 240410
RWRCLE
OHIO REGIONAL WEATHER ROUNDUP
NATIONAL WEATHER SERVICE CLEVELAND, OH
1200 AM EDT MON APR 24 2017

NOTE: "FAIR" INDICATES FEW OR NO CLOUDS BELOW 12,000 FEET WITH NO
SIGNIFICANT WEATHER AND/OR OBSTRUCTIONS TO VISIBILITY.

OHZ001>008-015>018-024>027-034-035-043-044-240500-
   NORTHWEST OHIO

CITY           SKY/WX    TMP DP  RH WIND       PRES   REMARKS
DEFIANCE       CLEAR     47  35  63 NE3       30.05S
FINDLAY        CLEAR     49  28  44 E8        30.03F
TOLEDO EXPRESS CLEAR     47  33  58 CALM      30.04F
TOLEDO EXEC    CLEAR     48  35  60 CALM      30.06F
LIMA           CLEAR     46  33  60 E7        30.04S
$$

OHZ009>014-019>023-028>033-038-089-240500-
   NORTHEAST OHIO

CITY           SKY/WX    TMP DP  RH WIND       PRES   REMARKS
CLE-HOPKINS    PTCLDY    49  35  58 CALM      30.08S
CLE-LAKEFRONT  CLEAR     51  34  52 CALM      30.05S
CUY CO. ARPT   NOT AVBL
LORAIN-ELYRIA  CLEAR     42  34  73 CALM      30.06F
ASHTABULA      CLEAR     41  36  82 CALM      30.08S
AKRON-CANTON   MOCLDY    52  34  50 NE8       30.05F
WOOSTER        NOT AVBL
MANSFIELD      CLEAR     49  32  52 NE7       30.05S
YOUNGSTOWN     CLOUDY    50  32  50 NE8       30.06F
$$

OHZ042-051>053-060>062-070>072-077>081-240500-
  SOUTHWEST OHIO

CITY           SKY/WX    TMP DP  RH WIND       PRES   REMARKS
CINC-COVINGTON CLOUDY    57  38  48 NE13      29.95F
CINC-LUNKEN    CLOUDY    48  46  93 NE5       29.97F
HAMILTON       CLOUDY    46  41  82 E5        29.99F
DAYTON         CLOUDY    50  36  58 NE7       30.02R
WRIGHT-PAT AFB CLOUDY    51  37  59 NE7       30.00S
DAYTON GENERAL CLOUDY    51  35  54 N7        29.99S
WILMINGTON     CLOUDY    50  38  63 NE6       29.99S
$$

OHZ036-037-039>041-045>050-054>059-063>069-073>076-082>088-240500-
  CENTRAL AND SOUTHEAST OHIO

CITY           SKY/WX    TMP DP  RH WIND       PRES   REMARKS
COLUMBUS       MOCLDY    56  39  53 NE9       30.01R
OSU AIRPORT    MOCLDY    52  39  61 NE7       30.01S
BOLTON FIELD   MOCLDY    53  37  55 NE7       30.02R
RICKENBACK AFB MOCLDY    51  37  57 NE7       30.00S
NEWARK         MOCLDY    55  36  48 CALM      30.01S
MARION         CLEAR     45  35  68 N8        30.04F
LANCASTER      PTCLDY    48  41  76 CALM      30.01R
ZANESVILLE     MOCLDY    55  34  45 NE5       30.00F
NEW PHILLY     NOT AVBL
$$



USA.gov is the U.S. government's official web portal to all federal, state and local government web resources and services.